This is the latest recevied weather packets stored in our database for station/object KE5WTH-14. If no packets are shown the sender has not sent any weather packets the latest 1 day(s).
| Time | Temp. | Humidity | Pressure | Rain* | Wind** | Luminosity | Snow |
|---|---|---|---|---|---|---|---|
| 1777983574 | 22.22° C | 84% | 1004.1 hPa | 0 mm | 3.58 m/s, 212° | 28 W/m² | - |
| 1777983512 | 22.22° C | 84% | 1004.1 hPa | 0 mm | 2.68 m/s, 209° | 30 W/m² | - |
| 1777983452 | 22.22° C | 84% | 1004.1 hPa | 0 mm | 2.24 m/s, 204° | 28 W/m² | - |
| 1777983393 | 22.22° C | 84% | 1004.1 hPa | 0 mm | 2.68 m/s, 171° | 25 W/m² | - |
| 1777983333 | 22.22° C | 84% | 1004 hPa | 0 mm | 3.13 m/s, 204° | 25 W/m² | - |
| 1777983275 | 22.22° C | 84% | 1004 hPa | 0 mm | 3.58 m/s, 243° | 25 W/m² | - |
| 1777983213 | 22.22° C | 84% | 1004.1 hPa | 0 mm | 3.13 m/s, 188° | 25 W/m² | - |
| 1777983153 | 22.22° C | 84% | 1004.1 hPa | 0 mm | 3.13 m/s, 207° | 25 W/m² | - |
| 1777983092 | 22.22° C | 84% | 1004 hPa | 0 mm | 2.68 m/s, 169° | 19 W/m² | - |
| 1777983034 | 22.22° C | 84% | 1004.1 hPa | 0 mm | 2.68 m/s, 173° | 21 W/m² | - |
| 1777982975 | 22.22° C | 84% | 1004 hPa | 0 mm | 3.13 m/s, 185° | 23 W/m² | - |
| 1777982911 | 22.22° C | 84% | 1004.1 hPa | 0 mm | 3.13 m/s, 155° | 25 W/m² | - |
| 1777982849 | 22.22° C | 84% | 1004.1 hPa | 0 mm | 2.68 m/s, 168° | 23 W/m² | - |
| 1777982789 | 22.22° C | 84% | 1004 hPa | 0 mm | 2.68 m/s, 193° | 23 W/m² | - |
| 1777982729 | 22.22° C | 84% | 1003.8 hPa | 0 mm | 2.68 m/s, 193° | 23 W/m² | - |
| 1777982666 | 22.22° C | 83% | 1004.1 hPa | 0 mm | 3.13 m/s, 192° | 21 W/m² | - |
| 1777982607 | 22.22° C | 83% | 1004 hPa | 0 mm | 3.13 m/s, 173° | 21 W/m² | - |
| 1777982544 | 22.22° C | 83% | 1004.1 hPa | 0 mm | 2.24 m/s, 223° | 21 W/m² | - |
| 1777982484 | 22.22° C | 83% | 1004 hPa | 0 mm | 1.79 m/s, 210° | 19 W/m² | - |
| 1777982411 | 22.22° C | 83% | 1004 hPa | 0 mm | 2.24 m/s, 140° | 18 W/m² | - |
| 1777982350 | 22.22° C | 83% | 1004 hPa | 0 mm | 2.68 m/s, 186° | 16 W/m² | - |
| 1777982288 | 22.22° C | 83% | 1003.8 hPa | 0 mm | 2.68 m/s, 197° | 16 W/m² | - |
| 1777982227 | 22.22° C | 83% | 1004 hPa | 0 mm | 3.13 m/s, 159° | 16 W/m² | - |
| 1777982166 | 22.22° C | 83% | 1004 hPa | 0 mm | 3.58 m/s, 147° | 14 W/m² | - |
| 1777982106 | 22.22° C | 83% | 1003.8 hPa | 0 mm | 3.58 m/s, 179° | 12 W/m² | - |
* Rain latest hour (hover to see other rain measurements)
** Current wind speed in m/s (hover to see current wind gust speed)